Location: Newark
(15.4608°S, 41.1635°W)
Time: 07:47:05
(UTC+00:00)

Vanguard 3 - Pass Details

Date: 08 August 2021
Orbit: 510 x 3260 km, 33.3° (Epoch: 22 September)

Event Time Altitude Azimuth Distance (km) Brightness Sun altitude
Rises 11:17:44 0° 225° (SW) 3,040 9.6 28.8°
Reaches altitude 10° 11:20:54 10° 206° (SSW) 1,890 8.7 29.5°
Maximum altitude 11:23:49 18° 160° (SSE) 1,310 8.3 30.1°
Drops below altitude 10° 11:26:29 10° 113° (ESE) 1,724 9.5 30.7°
Sets 11:29:11 0° 93° (E) 2,667 10.6 31.2°
